Weather History for Pensacola NAS, FL

Change the Weather History Date:

Saturday, November 10, 2012

  Actual Average Record
Temperature  
Mean Temperature 56 °F -  
Max Temperature 70 °F 70 °F 82 °F (2002)
Min Temperature 43 °F 51 °F 39 °F (1996)
Degree Days  
Heating Degree Days 8    
Growing Degree Days 6 (Base 50)    
Moisture  
Dew Point 54 °F    
Average Humidity 78    
Maximum Humidity 100    
Minimum Humidity 59    
Precipitation  
Precipitation 0.00 in - - ()
Sea Level Pressure  
Sea Level Pressure 30.26 in    
Wind  
Wind Speed 7 mph (East)    
Max Wind Speed 16 mph    
Max Gust Speed 24 mph    
Visibility 10 miles    
Events      
Averages and records for this station are not official NWS values.
T = Trace of Precipitation, MM = Missing Value Source: NWS Daily Summary

Daily Weather History Graph

Daily Weather History Graph

Search for Another Location

Airport:

Trip Planner

Search our weather history database for the weather conditions in past years. The results will help you decide how hot, cold, wet, or windy it might be!

Date:

Astronomy

Nov. 10, 2012 Rise Set
Actual Time 6:11 AM CST 4:54 PM CST
Civil Twilight 5:46 AM CST 5:20 PM CST
Nautical Twilight 5:17 AM CST 5:48 PM CST
Astronomical Twilight 4:48 AM CST 6:17 PM CST
Moon 2:29 AM CST (11/10) 2:29 PM CST (11/10)
Length of Visible Light 11h 34m
Length of Day
10h 43m
Waning Crescent, 14% of the Moon is Illuminated
Nov 10
Waning Crescent
Nov 13
New
Nov 20
First Quarter
Nov 28
Full
Dec 6
Last Quarter

Hourly Weather History & Observations

Time (CST) Temp. Windchill Dew Point Humidity Pressure Visibility Wind Dir Wind Speed Gust Speed Precip Events Conditions
12:56 AM 45.0 °F 43.5 °F 44.1 °F 97% 30.24 in 7.0 mi NNE 3.5 mph - 0.00 in   Clear
1:56 AM 43.0 °F - 43.0 °F 100% 30.23 in 6.0 mi Calm Calm - 0.00 in   Clear
2:56 AM 46.0 °F - 45.0 °F 96% 30.24 in 9.0 mi Calm Calm - N/A   Clear
3:56 AM 46.0 °F 44.8 °F 46.0 °F 100% 30.24 in 9.0 mi NNE 3.5 mph - 0.00 in   Clear
4:56 AM 46.9 °F - 46.9 °F 100% 30.26 in 10.0 mi North 3.5 mph - 0.00 in   Mostly Cloudy
5:56 AM 48.9 °F - 48.0 °F 97% 30.27 in 10.0 mi NE 4.6 mph - N/A   Clear
6:56 AM 54.0 °F - 51.1 °F 90% 30.29 in 10.0 mi NNE 3.5 mph - N/A   Clear
7:56 AM 60.1 °F - 55.0 °F 83% 30.29 in 10.0 mi ENE 8.1 mph - N/A   Clear
8:56 AM 64.9 °F - 55.0 °F 70% 30.31 in 10.0 mi East 9.2 mph - N/A   Partly Cloudy
9:56 AM 68.0 °F - 55.0 °F 63% 30.32 in 10.0 mi ENE 10.4 mph - N/A   Partly Cloudy
10:56 AM 69.1 °F - 55.9 °F 63% 30.31 in 10.0 mi East 13.8 mph - N/A   Partly Cloudy
11:56 AM 70.0 °F - 55.0 °F 59% 30.28 in 10.0 mi East 15.0 mph 19.6 mph N/A   Partly Cloudy
12:56 PM 70.0 °F - 55.0 °F 59% 30.26 in 10.0 mi East 13.8 mph - N/A   Partly Cloudy
1:56 PM 70.0 °F - 55.9 °F 61% 30.25 in 10.0 mi East 12.7 mph 24.2 mph N/A   Scattered Clouds
2:56 PM 69.1 °F - 57.0 °F 65% 30.24 in 10.0 mi East 11.5 mph - N/A   Scattered Clouds
3:56 PM 68.0 °F - 57.9 °F 70% 30.24 in 10.0 mi East 9.2 mph - N/A   Scattered Clouds
4:56 PM 64.9 °F - 59.0 °F 81% 30.24 in 10.0 mi ENE 9.2 mph - N/A   Mostly Cloudy
5:28 PM 66.2 °F - 59.0 °F 78% 30.24 in 10.0 mi East 10.4 mph - N/A   Mostly Cloudy
5:56 PM 66.0 °F - 59.0 °F 78% 30.25 in 10.0 mi East 11.5 mph - N/A   Mostly Cloudy
6:14 PM 64.4 °F - 60.8 °F 88% 30.24 in 10.0 mi East 8.1 mph - N/A   Overcast
6:28 PM 66.2 °F - 59.0 °F 78% 30.25 in 10.0 mi ESE 10.4 mph - N/A   Scattered Clouds
6:56 PM 66.9 °F - 59.0 °F 76% 30.25 in 10.0 mi SE 12.7 mph - N/A   Clear
7:56 PM 66.9 °F - 57.9 °F 73% 30.26 in 10.0 mi SE 13.8 mph - N/A   Clear
8:56 PM 66.9 °F - 57.9 °F 73% 30.27 in 10.0 mi SE 15.0 mph - N/A   Clear
9:56 PM 66.9 °F - 57.0 °F 70% 30.25 in 10.0 mi SE 13.8 mph - N/A   Clear
10:56 PM 66.9 °F - 57.9 °F 73% 30.24 in 10.0 mi SE 16.1 mph - N/A   Clear
11:56 PM 66.9 °F - 55.9 °F 68% 30.24 in 10.0 mi SE 13.8 mph - N/A   Clear